TimeCST,TemperatureF,Dew PointF,Humidity,Sea Level PressureIn,VisibilityMPH,Wind Direction,Wind SpeedMPH,Gust SpeedMPH,PrecipitationIn,Events,Conditions,WindDirDegrees,DateUTC
12:53 AM,70.0,63.0,78,30.14,10.0,SSE,9.2,-,0.00,,Clear,150,2012-11-12 06:53:00
1:53 AM,70.0,63.0,78,30.14,10.0,SSE,8.1,-,N/A,,Clear,150,2012-11-12 07:53:00
2:53 AM,70.0,64.0,81,30.11,10.0,SSE,10.4,-,N/A,,Clear,150,2012-11-12 08:53:00
3:53 AM,71.1,63.0,75,30.12,10.0,SSE,5.8,-,N/A,,Clear,160,2012-11-12 09:53:00
4:53 AM,70.0,64.0,81,30.14,10.0,SSW,3.5,-,N/A,,Clear,200,2012-11-12 10:53:00
5:53 AM,68.0,64.9,90,30.15,10.0,SSE,3.5,-,N/A,,Overcast,160,2012-11-12 11:53:00
6:53 AM,70.0,64.9,84,30.17,10.0,South,3.5,-,N/A,,Overcast,180,2012-11-12 12:53:00
7:53 AM,72.0,66.0,81,30.19,10.0,SW,4.6,-,0.00,,Overcast,230,2012-11-12 13:53:00
8:37 AM,64.4,62.6,94,30.22,4.0,NNW,15.0,20.7,0.02,Rain,Light Rain,340,2012-11-12 14:37:00
8:53 AM,61.0,59.0,93,30.24,5.0,NW,10.4,19.6,0.02,Rain,Light Rain,320,2012-11-12 14:53:00
9:53 AM,57.9,55.9,93,30.27,9.0,North,12.7,17.3,0.01,Rain,Light Rain,350,2012-11-12 15:53:00
10:26 AM,59.0,55.4,88,30.26,10.0,NNW,9.2,20.7,0.00,Rain,Light Rain,330,2012-11-12 16:26:00
10:34 AM,59.0,55.4,88,30.26,10.0,NNW,12.7,18.4,0.00,,Overcast,340,2012-11-12 16:34:00
10:53 AM,59.0,55.9,90,30.26,10.0,North,11.5,18.4,0.00,Rain,Light Rain,350,2012-11-12 16:53:00
11:18 AM,57.2,55.4,94,30.26,10.0,North,11.5,19.6,0.00,Rain,Light Rain,350,2012-11-12 17:18:00
11:53 AM,57.9,55.0,90,30.26,10.0,North,12.7,18.4,0.00,Rain,Light Rain,350,2012-11-12 17:53:00
12:04 PM,57.2,55.4,94,30.26,2.5,North,11.5,20.7,0.00,Rain,Light Rain,350,2012-11-12 18:04:00
12:36 PM,57.2,53.6,88,30.23,3.0,North,16.1,-,0.00,,Overcast,360,2012-11-12 18:36:00
12:46 PM,57.2,53.6,88,30.22,8.0,North,13.8,-,0.00,Rain,Light Rain,10,2012-11-12 18:46:00
12:53 PM,57.0,55.0,93,30.23,10.0,North,15.0,-,0.00,Rain,Light Rain,360,2012-11-12 18:53:00
1:00 PM,57.2,55.4,94,30.22,10.0,North,13.8,-,0.00,Rain,Light Rain,350,2012-11-12 19:00:00
1:53 PM,57.9,55.0,90,30.23,10.0,North,11.5,-,0.00,,Overcast,350,2012-11-12 19:53:00
2:53 PM,59.0,55.9,90,30.22,10.0,North,12.7,19.6,0.00,Rain,Light Rain,360,2012-11-12 20:53:00
3:18 PM,59.0,55.4,88,30.22,10.0,North,13.8,-,0.00,,Overcast,360,2012-11-12 21:18:00
3:39 PM,59.0,53.6,82,30.22,10.0,North,19.6,24.2,0.00,,Overcast,360,2012-11-12 21:39:00
3:53 PM,57.9,52.0,81,30.23,10.0,North,13.8,26.5,0.00,,Overcast,360,2012-11-12 21:53:00
4:31 PM,57.2,53.6,88,30.24,10.0,North,13.8,-,N/A,,Overcast,360,2012-11-12 22:31:00
4:53 PM,57.9,52.0,81,30.26,10.0,North,13.8,-,N/A,,Overcast,360,2012-11-12 22:53:00
5:53 PM,57.0,51.1,81,30.29,10.0,North,10.4,-,N/A,,Overcast,10,2012-11-12 23:53:00
6:53 PM,57.0,51.1,81,30.30,10.0,North,10.4,-,N/A,,Overcast,10,2012-11-13 00:53:00
7:53 PM,57.0,51.1,81,30.30,10.0,North,15.0,23.0,N/A,,Overcast,360,2012-11-13 01:53:00
8:53 PM,54.0,48.9,83,30.32,10.0,North,13.8,23.0,N/A,,Clear,350,2012-11-13 02:53:00
9:53 PM,51.1,43.0,74,30.32,10.0,North,15.0,23.0,N/A,,Clear,10,2012-11-13 03:53:00
10:53 PM,48.9,39.0,69,30.32,10.0,North,18.4,26.5,N/A,,Clear,10,2012-11-13 04:53:00
11:53 PM,48.0,39.0,71,30.33,10.0,North,11.5,-,N/A,,Clear,10,2012-11-13 05:53:00